Torna al catalogo

THOR ABLESTAR DEB

AttivoLEO
NORAD 402·DEBRIS·🇺🇸 United States

Lanciato Jun 29, 1961 da Cape Canaveral Space Force Station

Loading…

Prossimi Passaggi (prossime 24 ore)

TLE

AggiornatoSource: Space-Track

Epoca: Sep 7, 2026, 07:05 UTC

1 00402U 61015EB  26250.29551726  .00006061  00000-0  91699-3 0  9991
2 00402  66.6520   0.4407 0031781 250.4412 109.3276 14.74558451353324

Traccia THOR ABLESTAR DEB in tempo reale con AllMySat

Download on the App Store